Wind_Speed
13 14 14 13 13 13 11 10 11 12 13 14 13 11 10 9 9 11 12 12 12 11 10 10 9 9 9 9 10 11 10 10 9 9 8 8 8 8 9 8 7 7 7 5 5 5 5 6 6 6 6 5 4 4 2 2 1 1 1 1 2 2 2
15 15 13 10 11 12 11 10 11 12 13 15 15 12 11 10 11 13 13 13 13 12 11 11 11 10 10 10 11 11 10 9 9 9 9 8 8 8 9 8 7 7 7 6 6 6 5 5 6 6 5 5 4 3 3 2 2 2 2 3 3 3 1
17 16 13 11 11 13 13 14 14 14 15 15 14 12 11 11 13 15 15 14 13 13 13 12 12 11 11 11 11 11 10 10 9 9 8 8 8 8 9 8 8 8 8 7 7 7 7 6 6 6 5 5 4 3 3 2 2 3 3 4 4 3 3
16 16 15 14 15 16 16 17 18 18 17 16 15 14 12 13 15 16 16 15 14 14 14 13 13 12 11 12 12 11 11 10 10 9 8 8 8 8 9 9 8 8 8 8 8 8 7 7 7 6 6 5 5 4 3 3 3 4 5 5 5 4 5
15 14 15 16 17 18 18 19 19 20 19 18 18 16 14 14 16 17 17 16 16 15 15 14 13 12 12 13 12 12 11 10 10 9 9 9 8 9 9 9 9 9 9 9 8 8 7 7 7 8 7 6 6 6 5 4 4 5 6 5 5 5 5
16 15 15 16 18 20 20 20 20 21 21 20 18 17 16 17 18 19 19 18 17 16 15 14 13 13 14 14 13 13 12 11 10 9 9 9 9 9 10 10 10 10 10 10 9 8 8 9 9 8 8 8 8 7 6 5 5 6 6 5 6 6 6
16 16 17 17 18 19 20 22 22 21 21 20 17 16 17 18 19 20 20 19 18 16 15 14 14 14 15 15 14 13 12 11 10 9 9 9 9 9 10 10 11 11 11 11 10 9 9 10 9 8 8 8 8 7 6 5 6 7 7 6 6 6 7
17 17 17 17 18 18 19 21 23 22 21 20 16 15 17 19 20 21 20 19 18 16 16 15 15 16 16 16 15 14 13 11 10 10 10 10 10 10 10 11 13 12 12 11 11 10 10 11 10 8 8 7 7 6 6 6 7 8 7 7 7 8 8
19 19 18 17 17 17 18 19 21 22 22 20 16 15 18 20 21 22 21 20 18 17 17 16 16 16 17 16 16 15 14 12 12 11 11 11 11 11 11 12 13 13 12 12 12 11 11 11 10 8 7 7 7 7 8 7 8 8 8 7 8 9 8
18 19 19 18 17 17 17 17 19 22 23 20 17 16 19 21 22 22 22 21 20 19 18 17 16 17 17 17 17 16 14 13 13 12 12 12 11 11 11 12 12 13 12 12 12 13 12 11 9 8 8 8 8 9 9 8 8 9 9 9 9 9 8
16 17 18 18 18 18 17 16 17 21 23 21 17 17 20 22 23 24 23 22 20 19 19 18 17 17 17 17 17 16 15 14 14 13 13 13 12 12 12 12 12 13 13 13 13 13 13 11 10 10 9 8 9 9 9 9 9 9 10 10 10 9 8
15 15 16 18 19 18 17 17 18 21 23 22 19 19 21 23 25 25 23 21 20 19 18 18 18 18 17 17 17 16 16 15 15 14 13 13 12 12 12 12 12 13 13 13 13 13 13 12 12 11 9 9 10 10 10 10 11 10 11 11 10 10 9
14 14 15 17 18 18 17 17 19 22 23 22 21 20 22 25 27 25 23 21 20 19 18 18 19 18 18 18 18 17 16 16 15 13 13 13 13 12 12 12 13 14 13 12 12 12 13 13 13 12 11 11 11 12 12 11 11 11 12 12 11 11 11
16 15 15 17 18 18 16 17 19 22 24 23 22 22 23 26 27 26 24 22 20 19 19 19 19 19 19 19 18 17 16 15 14 13 13 13 13 13 13 13 14 14 13 12 12 12 13 14 14 13 13 13 12 12 13 13 12 12 14 14 13 13 13
18 16 15 16 18 17 16 16 18 22 24 23 23 23 24 26 27 26 24 22 21 20 19 19 19 19 19 19 18 16 15 14 14 14 14 14 14 14 14 14 14 14 13 13 13 13 14 15 16 15 15 14 13 13 15 14 14 14 15 16 16 16 16
20 17 15 16 18 17 16 15 17 21 24 24 24 24 24 26 26 26 24 22 21 20 19 19 19 19 20 19 17 16 16 15 15 15 16 16 16 15 14 14 14 13 13 13 13 14 14 15 16 17 16 15 14 15 16 16 16 16 16 17 18 18 18
21 18 15 16 17 17 16 16 18 22 24 24 24 23 24 26 26 26 24 22 20 20 20 19 19 19 19 18 17 16 17 17 17 17 17 18 18 17 16 16 15 14 14 14 14 14 15 15 17 18 17 17 16 16 17 18 19 18 18 19 20 20 20
21 19 17 17 17 16 15 17 20 22 22 22 23 24 25 27 26 26 24 22 21 21 20 19 19 19 19 18 17 17 18 18 18 18 19 19 19 19 19 18 17 17 17 16 17 17 16 17 19 20 19 19 18 18 19 20 21 21 21 21 21 22 22
19 18 18 18 17 15 14 17 21 23 23 22 23 25 26 26 26 25 24 22 22 21 19 19 20 20 19 18 17 17 18 18 18 18 18 18 18 19 19 18 18 18 19 19 20 20 20 20 21 21 22 21 21 22 22 22 22 23 24 24 24 24 24
18 16 17 18 18 16 15 18 21 23 23 22 22 23 24 25 24 24 23 21 21 21 20 20 21 21 20 19 18 18 17 18 18 17 17 16 17 17 18 18 18 19 20 21 21 22 22 22 22 23 23 23 24 26 26 25 24 24 25 26 27 26 26
18 17 16 17 18 17 17 19 21 23 23 22 21 21 22 23 23 22 21 20 21 21 21 21 21 21 21 20 20 19 18 17 17 17 17 16 16 17 18 19 20 20 20 21 22 23 23 24 24 25 25 24 25 27 28 27 26 26 26 26 27 27 27
20 19 16 17 18 18 18 20 22 24 23 21 19 19 20 20 20 20 20 20 21 21 22 22 21 21 21 21 20 20 19 18 18 18 19 18 18 19 20 21 21 21 21 22 23 25 26 26 27 27 27 25 25 26 28 28 28 28 27 27 27 27 27
20 19 18 19 20 18 18 22 25 25 23 21 19 19 19 19 19 19 21 21 21 20 21 21 21 21 21 21 21 21 21 21 20 20 21 21 21 22 22 22 21 21 21 22 24 25 27 27 28 29 29 28 27 27 28 28 29 29 28 28 27 27 27
21 20 20 21 21 19 20 24 25 23 21 20 19 20 20 20 21 22 23 23 22 20 20 21 21 22 22 22 22 23 23 23 23 23 23 23 22 22 21 20 20 20 21 22 24 25 26 27 28 29 30 30 30 28 28 28 29 29 29 29 29 28 28
20 20 21 21 20 19 21 24 21 18 18 18 18 20 22 22 24 25 25 25 23 21 20 20 21 22 22 22 23 24 25 25 25 25 25 24 23 21 20 20 21 21 23 24 25 26 27 27 28 28 29 30 30 29 28 28 28 28 29 29 29 29 30
18 19 21 21 19 19 22 22 18 17 17 18 20 23 25 26 26 25 25 24 22 21 20 20 21 22 23 23 24 25 25 25 25 26 26 25 25 24 24 24 24 24 25 26 27 28 28 29 29 29 29 29 29 29 29 29 29 29 29 29 29 30 31
18 19 20 20 19 21 23 21 19 19 20 22 24 27 27 26 24 23 23 23 21 20 20 20 21 22 23 24 25 26 26 26 25 26 26 27 27 27 27 26 25 25 25 25 26 28 29 30 31 30 30 29 29 30 30 31 30 30 30 30 30 31 33
18 18 19 20 21 23 23 21 20 20 22 24 25 26 25 24 23 23 24 23 21 21 21 22 23 23 24 24 24 25 25 26 26 26 27 28 29 29 29 29 27 25 24 25 28 30 31 31 31 31 30 30 30 30 31 31 31 31 31 32 32 33 34
19 19 20 22 24 24 22 21 20 20 22 23 23 24 24 24 24 23 23 23 23 23 24 24 25 25 26 26 25 25 25 27 28 29 30 31 32 32 32 32 29 27 28 30 32 33 33 32 32 31 30 30 30 30 30 31 31 32 33 34 34 35 36
17 20 22 24 25 24 23 22 20 20 21 22 22 23 25 25 24 23 23 23 23 23 24 25 26 27 28 29 29 29 29 29 30 32 34 35 34 35 34 33 30 29 30 32 32 33 33 32 31 30 29 29 30 29 30 31 32 33 35 35 36 38 39
16 18 21 23 23 23 22 22 21 22 24 25 24 23 25 26 25 23 23 23 22 22 23 24 25 27 29 30 31 31 31 32 32 34 35 35 34 34 33 32 31 31 32 32 32 34 33 31 30 29 28 28 29 30 31 32 34 35 37 38 39 40 42
16 18 20 21 23 23 23 23 25 28 30 30 28 25 25 25 24 24 24 24 24 24 24 24 24 25 26 27 28 29 30 30 31 31 32 32 31 29 28 29 30 31 32 32 33 35 34 32 30 29 28 29 31 32 33 34 35 37 39 41 42 44 45
19 22 24 26 27 27 27 28 30 31 31 31 31 29 27 25 24 24 25 26 27 27 26 25 24 23 24 24 25 26 26 27 27 28 28 28 27 25 25 26 28 29 30 31 33 34 34 32 30 29 30 32 33 34 35 36 38 39 41 43 45 46 48
23 26 28 31 34 34 34 34 34 33 33 33 31 29 27 25 24 24 25 26 26 26 25 24 24 23 23 23 24 25 26 26 26 27 26 25 24 23 24 25 25 26 28 30 31 33 33 32 32 32 33 34 35 36 38 40 42 44 44 46 47 49 50
20 22 25 30 35 37 36 35 34 33 32 30 26 24 24 24 23 24 24 24 24 24 23 24 24 24 24 25 26 26 26 26 26 26 26 25 24 24 25 25 26 27 28 29 30 32 33 34 34 35 35 36 38 40 42 44 45 47 48 50 51 52 53
20 20 21 23 25 25 24 23 24 24 23 22 22 22 23 22 22 22 22 23 23 23 23 24 25 25 25 26 26 26 27 27 27 27 27 27 27 27 27 28 28 29 30 31 32 33 35 36 37 38 39 41 43 44 46 47 48 49 51 52 53 54 54
24 24 24 22 20 17 16 17 18 17 18 19 21 22 22 21 21 22 22 23 23 23 23 24 25 26 27 26 26 27 27 28 29 29 29 29 30 30 30 31 32 32 33 35 36 37 38 40 41 43 45 46 48 49 50 51 52 53 54 54 54 55 56
Wind_Direction
260 265 272 273 263 259 254 243 239 240 235 232 238 248 251 251 248 243 239 233 229 227 227 228 234 243 244 241 238 237 240 248 256 259 257 256 256 259 264 267 271 275 280 285 282 279 277 270 265 261 253 242 237 235 229 208 201 215 205 199 213 213 193
261 262 267 263 252 252 249 241 235 234 234 236 242 250 252 250 247 244 239 234 231 229 228 230 234 239 238 234 233 236 241 246 251 253 254 254 252 253 258 263 268 273 278 280 274 271 268 260 258 253 244 241 238 225 205 182 186 213 224 234 242 248 252
260 258 257 249 246 252 251 247 242 240 243 243 243 247 250 249 247 246 242 235 231 230 230 232 234 235 232 227 229 235 241 246 250 252 253 253 252 255 257 260 264 266 271 273 269 270 267 259 256 249 238 235 229 212 196 188 200 224 240 253 263 269 263
257 254 252 248 247 251 250 247 247 246 246 245 243 246 250 247 246 246 242 235 230 229 230 233 234 232 227 224 226 232 238 245 252 254 254 253 253 257 260 263 267 269 271 271 270 270 266 260 253 242 235 226 214 210 208 211 225 242 253 263 268 263 256
258 254 251 247 243 244 243 243 245 245 245 245 243 244 247 244 244 243 237 231 228 228 229 230 229 225 223 222 224 231 239 245 252 258 260 260 260 261 263 268 271 274 276 276 273 269 262 256 247 237 234 225 215 216 222 224 230 243 251 257 258 256 254
263 258 253 247 241 239 238 238 241 243 245 242 237 240 244 242 240 237 230 226 225 227 228 226 224 221 222 222 223 230 238 244 252 260 263 264 264 263 267 272 273 273 277 277 274 267 258 252 246 239 236 230 223 221 222 221 226 236 240 243 248 250 248
257 253 250 247 242 238 235 235 237 241 241 233 230 238 241 238 235 231 225 223 224 227 227 225 223 221 221 222 224 229 235 242 250 258 261 263 263 262 266 271 272 271 272 274 273 267 258 253 249 243 235 229 226 221 217 215 223 231 230 229 239 244 242
247 244 244 244 242 238 234 233 234 237 233 224 228 239 237 232 229 225 223 223 225 227 229 230 227 223 222 223 225 230 234 240 247 253 255 257 257 258 262 265 269 271 269 269 270 264 258 255 253 246 237 230 226 222 218 212 220 233 231 221 229 237 238
235 235 236 239 240 236 234 233 232 230 222 219 231 240 235 231 226 222 223 224 226 230 233 233 230 226 225 226 228 232 236 242 248 251 252 253 253 255 259 262 266 270 271 271 271 266 261 258 254 247 237 230 224 221 220 215 217 231 237 229 229 232 232
224 228 229 232 234 232 232 231 227 222 217 221 235 239 235 231 225 224 225 226 229 233 236 235 231 229 229 230 232 235 240 246 250 250 250 251 252 253 258 261 265 269 272 271 270 268 264 259 254 245 232 224 224 225 228 228 228 233 239 239 235 232 230
219 227 227 226 226 225 226 226 223 218 215 222 234 236 235 232 227 227 228 229 232 235 236 236 233 232 233 235 237 240 244 248 248 247 247 248 249 251 257 263 266 269 269 268 268 268 266 260 253 244 231 224 228 231 234 241 244 244 242 240 236 232 231
226 232 233 228 224 222 220 220 220 215 214 222 233 234 232 230 229 229 230 231 233 234 235 235 233 235 236 238 241 244 246 247 247 246 245 248 250 250 255 260 262 263 264 265 266 267 266 260 251 242 231 226 232 236 239 243 247 248 245 242 238 235 233
243 247 244 236 228 224 221 219 216 213 215 225 234 233 229 229 230 231 232 233 233 234 234 233 233 235 236 239 242 243 244 246 247 247 247 249 250 250 253 254 255 257 258 259 260 261 260 255 250 242 233 230 236 242 245 246 249 251 249 247 242 239 238
250 255 254 243 233 229 226 223 218 214 218 227 233 230 227 228 231 232 234 234 235 235 233 232 233 233 235 238 239 240 242 244 248 252 253 252 250 248 249 251 253 255 257 256 255 254 253 251 248 244 239 238 240 247 251 253 254 254 253 252 249 245 244
248 251 251 241 232 230 231 231 225 217 219 227 229 226 226 228 231 233 235 236 236 235 233 232 232 232 233 236 236 237 240 244 250 254 255 253 251 248 248 249 251 252 252 252 251 251 252 253 253 251 249 247 245 248 252 253 253 252 252 252 251 249 247
245 245 240 228 223 225 228 234 230 219 218 223 225 224 226 228 231 234 235 236 236 235 232 232 232 232 233 234 234 236 241 247 252 254 254 253 252 251 250 250 251 251 251 250 250 253 254 256 258 258 258 257 256 255 256 256 256 255 254 254 253 252 251
240 240 234 222 216 218 223 230 227 219 219 222 222 222 226 229 232 234 236 237 235 233 233 232 231 231 231 233 234 237 243 249 252 253 252 252 253 253 252 253 255 256 256 255 253 253 255 257 260 261 261 261 260 260 261 262 262 260 258 256 255 255 254
238 238 232 222 215 216 221 224 222 220 223 225 220 221 226 230 233 235 236 237 235 235 235 234 231 230 231 234 236 240 245 249 250 250 251 252 253 253 254 256 258 260 262 262 260 258 258 258 260 262 265 266 264 263 262 263 264 265 264 262 260 259 259
239 237 232 225 217 218 222 218 216 221 226 225 221 223 228 231 234 236 238 238 237 237 238 237 233 229 232 236 240 243 246 246 247 247 248 250 251 253 255 257 259 262 263 264 264 264 263 262 264 267 269 272 271 269 266 265 266 268 269 269 266 263 263
240 237 234 228 221 222 223 215 216 226 228 222 221 226 230 233 236 238 239 239 239 238 238 237 234 231 234 239 242 242 241 241 242 244 246 249 252 255 258 259 260 261 262 264 267 269 269 269 270 269 268 269 271 271 271 270 268 267 268 270 270 267 265
241 235 232 232 226 225 224 215 218 226 224 219 222 227 231 233 236 238 239 239 238 237 235 233 232 234 237 240 241 240 238 239 242 246 249 252 255 258 260 260 261 262 264 267 271 273 273 272 271 269 267 265 267 270 273 273 271 269 267 267 268 268 267
237 227 228 234 225 222 222 215 216 221 220 221 226 231 234 235 235 236 240 242 240 236 233 231 232 235 238 239 240 239 240 242 246 250 254 257 259 261 262 262 263 264 267 269 271 273 273 273 273 273 271 267 266 268 272 273 274 273 271 270 269 269 269
229 224 232 235 223 220 220 213 211 215 223 231 235 236 237 234 231 234 239 242 241 237 233 232 234 237 239 240 240 241 243 246 249 252 256 260 262 263 263 264 266 269 272 273 274 274 274 274 274 274 273 271 266 264 265 266 268 270 270 270 270 270 271
232 233 235 229 221 221 215 207 207 215 228 239 240 237 236 229 226 232 237 239 241 240 236 235 237 239 241 241 242 244 246 248 251 254 257 260 263 265 267 269 273 277 279 280 279 279 278 276 275 274 274 273 270 266 264 265 266 267 269 270 271 273 275
236 233 225 220 226 228 212 203 208 222 234 242 241 236 233 228 226 231 235 237 239 241 240 239 239 240 242 243 244 246 249 251 255 257 260 262 264 267 270 273 277 280 281 281 282 282 280 276 273 271 270 271 271 271 269 268 268 269 270 272 275 277 279
231 227 221 222 232 230 213 207 218 230 233 235 236 232 229 228 228 231 235 238 240 241 241 241 240 240 241 243 245 248 252 254 258 260 262 263 263 265 268 271 274 276 278 281 281 278 276 273 270 268 266 266 267 268 268 268 267 268 270 272 275 277 279
229 229 229 229 227 217 211 216 228 233 229 228 229 229 229 230 231 231 235 238 240 241 242 242 243 242 243 244 246 249 252 255 257 259 260 262 262 264 266 269 270 271 275 280 281 276 273 271 269 267 264 262 262 263 265 267 268 270 272 274 276 279 280
230 230 229 225 217 213 216 225 232 234 232 230 231 231 230 232 231 230 232 235 238 241 243 244 245 245 246 246 245 246 250 253 255 258 261 263 264 266 267 268 269 271 273 274 270 270 270 268 265 265 264 263 262 263 265 267 270 272 273 275 278 281 282
226 226 223 218 215 218 226 231 232 235 236 234 234 233 230 231 233 234 235 236 239 243 246 248 251 252 253 253 251 248 249 253 258 264 266 266 267 268 267 266 266 267 269 265 261 265 270 268 264 264 265 266 266 267 268 270 272 275 277 280 282 283 284
225 220 217 218 222 228 235 236 235 238 241 239 236 232 231 233 236 238 240 241 243 247 251 253 255 257 258 259 258 255 253 256 260 264 266 266 268 268 266 263 260 259 261 260 257 261 267 265 262 263 266 268 271 273 274 276 278 280 282 284 285 285 285
228 221 218 224 231 234 235 235 230 225 230 238 240 235 232 232 234 237 241 244 247 251 254 258 259 259 258 258 258 257 257 258 258 259 261 264 266 266 264 261 258 256 258 258 255 256 259 261 261 263 267 272 275 277 279 280 281 283 284 285 285 285 286
232 227 224 229 237 241 237 234 229 224 228 237 242 237 233 231 234 240 243 245 249 252 256 260 261 260 257 255 255 256 257 258 258 258 260 262 264 265 265 262 259 258 260 258 252 250 256 261 263 265 269 273 275 277 279 280 282 284 286 286 287 288 288
244 238 227 219 223 235 239 237 235 233 235 240 242 241 239 238 238 240 242 246 250 253 256 258 258 258 257 255 256 257 258 259 260 261 263 265 268 269 270 267 262 260 257 252 246 249 256 262 265 267 269 272 275 278 281 283 284 285 286 286 287 288 289
235 234 228 218 216 225 234 235 234 235 239 244 245 241 238 238 236 235 238 244 248 251 254 256 256 256 256 256 257 258 259 260 262 263 266 268 269 268 267 265 261 256 252 249 248 253 259 264 267 269 271 274 277 281 283 285 286 286 286 286 287 287 287
235 229 224 220 220 225 230 231 232 235 239 243 241 233 231 234 235 235 238 243 247 251 253 255 256 256 256 258 260 260 261 262 263 264 265 266 266 265 264 263 261 258 257 257 258 261 264 268 270 272 274 277 279 282 284 285 286 286 287 287 287 286 286
253 246 236 231 227 225 226 227 228 228 228 228 229 231 235 239 240 241 244 249 253 256 257 256 257 259 258 259 260 261 262 262 262 264 264 265 265 263 262 261 261 262 262 263 264 266 267 269 271 273 276 279 281 284 285 286 287 287 287 287 287 287 286
256 255 254 252 247 236 229 230 231 230 230 235 242 244 242 243 247 250 253 256 258 257 256 257 258 259 259 257 257 258 259 261 262 264 266 266 267 266 265 264 264 265 266 267 268 269 270 272 275 277 280 283 285 287 288 288 288 288 288 288 288 287 287
Height
5792 5793 5795 5796 5798 5799 5799 5800 5800 5801 5802 5803 5804 5804 5803 5804 5804 5806 5807 5807 5807 5808 5808 5809 5809 5811 5812 5813 5813 5814 5814 5814 5814 5814 5814 5815 5815 5815 5815 5815 5815 5815 5816 5815 5815 5815 5816 5816 5817 5817 5818 5818 5818 5819 5819 5819 5820 5820 5821 5821 5820 5820 5820
5791 5792 5793 5794 5796 5797 5798 5799 5799 5800 5801 5802 5802 5801 5801 5801 5803 5804 5805 5805 5805 5805 5806 5807 5808 5809 5810 5811 5812 5812 5813 5813 5812 5812 5812 5813 5813 5813 5813 5813 5814 5814 5814 5814 5814 5814 5814 5815 5815 5816 5817 5817 5817 5817 5818 5818 5819 5819 5819 5819 5819 5819 5819
5789 5790 5791 5792 5794 5795 5796 5797 5798 5799 5799 5799 5799 5799 5799 5800 5801 5802 5802 5803 5803 5803 5804 5805 5806 5807 5808 5809 5810 5810 5811 5811 5811 5811 5811 5811 5811 5811 5811 5812 5812 5812 5812 5812 5812 5812 5813 5813 5814 5814 5815 5816 5816 5816 5816 5817 5817 5817 5818 5818 5818 5818 5818
5788 5788 5789 5790 5792 5793 5794 5795 5796 5797 5797 5797 5797 5797 5798 5799 5799 5800 5800 5801 5801 5801 5802 5804 5805 5806 5806 5807 5808 5808 5809 5810 5809 5809 5809 5809 5809 5809 5809 5809 5810 5810 5810 5811 5811 5811 5811 5811 5812 5813 5814 5814 5815 5815 5815 5816 5816 5816 5816 5816 5817 5817 5817
5786 5787 5787 5788 5789 5790 5792 5793 5793 5794 5794 5794 5795 5796 5796 5797 5798 5798 5799 5799 5799 5800 5801 5802 5803 5804 5804 5805 5806 5807 5807 5808 5808 5808 5808 5808 5808 5808 5808 5808 5808 5808 5808 5809 5809 5809 5809 5809 5810 5811 5812 5813 5813 5814 5814 5815 5815 5815 5815 5815 5815 5815 5816
5785 5785 5786 5786 5787 5788 5789 5790 5791 5791 5792 5792 5793 5794 5794 5795 5796 5796 5797 5797 5798 5798 5799 5800 5801 5802 5802 5803 5804 5805 5805 5805 5805 5806 5806 5806 5807 5807 5806 5806 5806 5806 5806 5807 5807 5808 5808 5808 5808 5809 5810 5811 5812 5812 5813 5813 5814 5813 5813 5813 5814 5814 5814
5783 5783 5784 5785 5785 5785 5786 5787 5788 5789 5789 5790 5791 5791 5792 5793 5794 5794 5795 5796 5796 5796 5797 5798 5799 5800 5800 5801 5802 5803 5803 5803 5803 5803 5804 5805 5805 5805 5805 5805 5804 5804 5805 5805 5806 5806 5806 5806 5807 5808 5809 5809 5810 5811 5811 5812 5812 5811 5811 5812 5812 5813 5813
5780 5781 5781 5782 5782 5783 5783 5784 5785 5785 5786 5788 5789 5789 5789 5791 5792 5792 5793 5794 5795 5795 5795 5796 5797 5797 5798 5799 5800 5801 5801 5801 5801 5801 5802 5802 5803 5803 5803 5803 5802 5802 5803 5804 5804 5804 5805 5805 5805 5806 5807 5807 5808 5809 5809 5810 5810 5809 5810 5810 5811 5811 5812
5776 5777 5778 5779 5780 5780 5780 5781 5781 5782 5784 5786 5787 5787 5788 5789 5790 5790 5791 5792 5792 5793 5793 5794 5794 5795 5796 5797 5798 5798 5799 5799 5799 5799 5799 5800 5801 5801 5801 5801 5801 5800 5801 5802 5802 5803 5804 5804 5804 5805 5805 5806 5806 5807 5807 5808 5808 5807 5808 5809 5809 5810 5810
5772 5773 5774 5775 5776 5777 5778 5778 5779 5780 5781 5783 5784 5785 5785 5786 5788 5788 5789 5789 5790 5791 5791 5791 5792 5793 5793 5795 5796 5796 5797 5797 5797 5797 5797 5798 5799 5799 5799 5799 5799 5799 5799 5800 5801 5801 5802 5803 5803 5804 5804 5804 5805 5805 5805 5806 5806 5806 5807 5807 5807 5808 5808
5769 5770 5771 5772 5773 5774 5775 5776 5776 5778 5779 5781 5781 5782 5783 5784 5786 5786 5787 5787 5788 5788 5789 5789 5790 5790 5791 5793 5793 5794 5794 5794 5795 5795 5795 5796 5796 5797 5797 5797 5797 5797 5798 5798 5799 5799 5800 5801 5802 5802 5802 5803 5803 5803 5804 5804 5804 5805 5805 5805 5806 5806 5806
5767 5767 5768 5769 5769 5770 5771 5772 5773 5775 5776 5778 5778 5779 5781 5782 5783 5784 5785 5785 5785 5786 5786 5787 5787 5788 5789 5790 5791 5792 5792 5792 5792 5793 5793 5794 5794 5795 5795 5795 5795 5795 5796 5796 5797 5798 5798 5798 5799 5800 5801 5801 5801 5802 5802 5803 5803 5803 5803 5803 5804 5804 5804
5765 5765 5766 5766 5766 5767 5768 5769 5770 5772 5774 5775 5776 5776 5778 5780 5781 5781 5782 5782 5783 5783 5784 5784 5785 5786 5787 5788 5789 5790 5790 5790 5791 5791 5791 5792 5792 5792 5793 5793 5793 5793 5793 5794 5795 5795 5796 5796 5796 5797 5798 5799 5799 5800 5800 5800 5801 5801 5801 5801 5802 5802 5802
5762 5763 5763 5764 5764 5765 5766 5767 5768 5770 5771 5772 5773 5774 5775 5777 5778 5779 5779 5780 5780 5781 5782 5782 5783 5784 5785 5785 5786 5787 5788 5788 5789 5789 5790 5790 5790 5790 5790 5791 5790 5790 5791 5792 5792 5793 5793 5793 5794 5795 5796 5797 5797 5797 5797 5798 5799 5799 5799 5799 5799 5800 5799
5759 5760 5760 5761 5762 5763 5764 5766 5767 5767 5768 5769 5770 5771 5773 5774 5775 5776 5777 5778 5778 5779 5780 5780 5781 5782 5782 5783 5784 5785 5785 5786 5787 5787 5787 5788 5788 5788 5788 5789 5788 5788 5789 5789 5789 5790 5791 5791 5791 5792 5793 5794 5795 5795 5795 5795 5796 5796 5797 5797 5797 5797 5797
5757 5757 5757 5757 5759 5760 5762 5763 5764 5764 5765 5766 5767 5769 5770 5771 5772 5773 5774 5775 5776 5777 5778 5778 5779 5780 5780 5781 5782 5783 5783 5783 5784 5785 5785 5785 5786 5786 5786 5786 5787 5787 5787 5787 5788 5788 5789 5789 5789 5789 5790 5792 5793 5793 5793 5793 5793 5794 5795 5795 5795 5795 5794
5753 5754 5754 5755 5756 5757 5759 5760 5761 5762 5763 5764 5765 5767 5768 5769 5770 5771 5772 5773 5774 5775 5776 5777 5777 5778 5778 5779 5780 5780 5780 5781 5782 5782 5782 5783 5783 5784 5784 5784 5785 5785 5785 5785 5786 5786 5787 5787 5787 5787 5788 5789 5790 5791 5790 5790 5790 5791 5792 5792 5792 5792 5792
5749 5750 5751 5752 5753 5754 5755 5757 5758 5760 5761 5762 5763 5765 5766 5767 5768 5769 5770 5771 5772 5773 5774 5775 5775 5776 5776 5777 5778 5778 5778 5779 5779 5780 5780 5780 5781 5781 5782 5782 5783 5783 5783 5783 5784 5785 5785 5786 5785 5785 5786 5787 5788 5788 5788 5788 5787 5788 5788 5789 5789 5788 5788
5746 5747 5748 5749 5750 5751 5752 5754 5756 5757 5759 5760 5761 5762 5763 5764 5766 5767 5768 5769 5770 5771 5772 5772 5773 5773 5774 5774 5775 5776 5776 5776 5777 5777 5778 5778 5779 5779 5779 5780 5780 5780 5781 5781 5781 5783 5783 5784 5784 5783 5783 5784 5784 5784 5784 5785 5785 5785 5784 5785 5785 5785 5785
5744 5744 5745 5746 5747 5748 5749 5751 5753 5755 5756 5758 5759 5760 5761 5762 5763 5764 5766 5767 5768 5769 5769 5769 5770 5770 5771 5772 5773 5773 5774 5774 5775 5775 5776 5776 5777 5777 5777 5778 5778 5778 5778 5779 5779 5780 5781 5781 5781 5781 5781 5781 5781 5780 5780 5782 5783 5783 5782 5782 5782 5782 5781
5742 5742 5743 5744 5745 5746 5746 5748 5750 5752 5753 5754 5755 5757 5758 5759 5761 5763 5764 5765 5765 5765 5766 5767 5767 5768 5769 5770 5770 5771 5772 5772 5772 5773 5774 5774 5775 5775 5775 5775 5775 5775 5776 5776 5777 5777 5777 5777 5778 5778 5778 5779 5778 5777 5777 5777 5778 5779 5779 5779 5778 5778 5778
5738 5739 5740 5742 5743 5743 5744 5745 5747 5749 5750 5751 5752 5754 5755 5758 5760 5761 5762 5762 5762 5762 5763 5765 5765 5766 5766 5767 5768 5769 5769 5770 5771 5771 5771 5772 5773 5772 5773 5773 5773 5773 5774 5774 5774 5774 5774 5774 5774 5774 5775 5776 5776 5775 5774 5774 5773 5774 5774 5774 5774 5774 5774
5735 5736 5738 5739 5740 5740 5741 5743 5745 5746 5747 5748 5750 5752 5754 5756 5758 5759 5759 5759 5759 5760 5761 5762 5763 5764 5764 5765 5766 5766 5767 5767 5768 5769 5769 5770 5770 5770 5770 5770 5770 5771 5772 5772 5771 5771 5771 5771 5771 5771 5771 5771 5772 5772 5771 5770 5770 5769 5769 5769 5769 5769 5769
5733 5734 5735 5736 5736 5737 5738 5740 5742 5744 5745 5746 5748 5750 5752 5754 5755 5756 5756 5755 5756 5757 5758 5760 5761 5761 5762 5763 5763 5764 5764 5765 5765 5766 5766 5767 5767 5767 5767 5768 5768 5769 5769 5769 5768 5768 5768 5768 5768 5768 5767 5767 5767 5768 5768 5768 5767 5766 5766 5765 5765 5765 5765
5730 5731 5733 5733 5734 5735 5736 5738 5740 5741 5743 5744 5747 5748 5749 5751 5752 5752 5752 5753 5754 5755 5756 5757 5758 5759 5759 5760 5761 5761 5761 5762 5763 5763 5763 5764 5765 5765 5765 5765 5766 5766 5766 5765 5765 5765 5765 5764 5764 5764 5763 5763 5763 5764 5764 5764 5764 5763 5763 5762 5762 5762 5761
5728 5729 5730 5731 5731 5733 5735 5736 5737 5739 5740 5742 5743 5744 5745 5746 5748 5749 5750 5750 5751 5752 5753 5754 5755 5756 5756 5757 5758 5758 5758 5759 5760 5760 5760 5761 5762 5762 5762 5762 5762 5763 5762 5762 5762 5761 5761 5760 5760 5760 5760 5760 5760 5759 5760 5760 5759 5759 5759 5759 5759 5758 5757
5725 5726 5727 5728 5729 5731 5732 5733 5735 5736 5737 5738 5739 5740 5741 5743 5745 5746 5747 5748 5749 5750 5751 5751 5752 5752 5753 5754 5754 5755 5755 5756 5756 5756 5757 5758 5758 5758 5758 5758 5759 5759 5759 5758 5757 5756 5756 5756 5756 5756 5756 5756 5756 5755 5755 5755 5755 5755 5755 5755 5754 5753 5752
5722 5724 5724 5725 5727 5728 5729 5731 5732 5733 5734 5735 5736 5738 5739 5741 5742 5744 5744 5745 5746 5747 5748 5748 5749 5750 5750 5750 5751 5752 5752 5753 5753 5753 5754 5754 5754 5754 5754 5754 5755 5756 5756 5755 5752 5751 5752 5752 5752 5752 5752 5752 5752 5752 5751 5751 5752 5751 5751 5751 5750 5750 5748
5720 5722 5722 5723 5724 5726 5727 5728 5729 5730 5732 5733 5734 5736 5737 5738 5739 5740 5741 5742 5743 5744 5745 5746 5746 5746 5747 5747 5748 5749 5750 5750 5750 5750 5750 5750 5750 5750 5750 5750 5751 5752 5752 5751 5748 5747 5748 5748 5748 5748 5748 5748 5748 5748 5748 5748 5748 5747 5747 5746 5746 5745 5744
5719 5720 5721 5722 5722 5724 5725 5726 5727 5728 5729 5730 5731 5732 5733 5734 5736 5737 5738 5739 5740 5741 5742 5742 5743 5743 5743 5744 5745 5746 5746 5746 5747 5746 5745 5745 5746 5745 5745 5745 5746 5747 5747 5745 5744 5744 5744 5744 5744 5744 5744 5745 5745 5745 5744 5744 5743 5742 5742 5741 5741 5740 5739
5716 5717 5719 5720 5720 5721 5722 5723 5725 5727 5726 5726 5727 5729 5730 5731 5732 5733 5735 5736 5737 5738 5738 5739 5739 5739 5739 5740 5740 5741 5742 5742 5743 5742 5741 5741 5741 5741 5741 5740 5741 5741 5742 5741 5741 5741 5740 5740 5740 5741 5741 5741 5741 5741 5740 5740 5739 5738 5737 5736 5735 5735 5734
5713 5714 5716 5717 5717 5718 5719 5720 5722 5723 5723 5723 5725 5726 5727 5728 5729 5730 5731 5732 5733 5734 5735 5735 5736 5735 5735 5736 5736 5737 5737 5738 5738 5738 5738 5737 5737 5737 5737 5736 5736 5737 5737 5737 5737 5737 5736 5736 5737 5737 5737 5737 5737 5736 5736 5735 5735 5734 5733 5731 5730 5730 5728
5711 5711 5712 5712 5713 5714 5715 5716 5717 5718 5719 5720 5722 5723 5724 5725 5726 5727 5728 5729 5730 5731 5731 5732 5732 5732 5732 5733 5733 5733 5733 5733 5733 5734 5733 5733 5733 5733 5733 5733 5732 5732 5732 5732 5732 5732 5732 5733 5733 5733 5732 5732 5732 5731 5731 5731 5730 5729 5728 5727 5725 5724 5723
5709 5709 5710 5710 5710 5710 5711 5712 5713 5714 5716 5716 5717 5719 5720 5721 5722 5723 5724 5725 5726 5727 5728 5728 5729 5729 5729 5729 5730 5730 5730 5730 5730 5730 5730 5730 5730 5730 5729 5729 5729 5728 5728 5728 5728 5729 5728 5728 5728 5727 5727 5727 5727 5726 5726 5725 5724 5723 5723 5721 5720 5719 5717
5706 5707 5707 5707 5707 5707 5708 5709 5710 5711 5712 5713 5714 5715 5716 5717 5718 5719 5720 5721 5722 5723 5724 5724 5724 5725 5726 5726 5726 5726 5726 5726 5726 5726 5726 5727 5727 5726 5726 5725 5725 5725 5725 5725 5725 5724 5724 5723 5723 5722 5723 5723 5722 5721 5720 5719 5718 5717 5716 5715 5713 5712 5710
5703 5703 5703 5704 5704 5704 5705 5705 5706 5707 5708 5709 5710 5712 5712 5713 5714 5715 5716 5717 5718 5719 5719 5719 5720 5721 5721 5722 5722 5722 5722 5722 5722 5722 5722 5722 5722 5722 5722 5722 5721 5721 5721 5720 5720 5719 5719 5718 5718 5718 5717 5717 5717 5716 5715 5713 5712 5710 5709 5707 5706 5704 5702
5699 5699 5700 5700 5700 5701 5702 5702 5702 5703 5705 5706 5707 5708 5709 5709 5710 5711 5712 5714 5715 5715 5715 5715 5716 5717 5717 5717 5718 5718 5719 5718 5718 5718 5717 5717 5718 5718 5718 5718 5717 5716 5716 5715 5715 5714 5714 5713 5713 5712 5712 5711 5710 5709 5708 5706 5704 5703 5702 5700 5698 5696 5694